LICALICC

Guest
Details From LICA - Lamezia Terme
To LICC - Catania Fontanarossa
Flight Number -
Tags generated
Created
Modified
Stats Distance 103 nm / 190 km
Max Altitude 4,600 ft / 1,402 m
Waypoints 3
Social Downloads 8
Likes 0
Share VATSIM

Download

Looking for another format? Having issues loading an existing format? Contact us
Advertisement - Login to hide

Notes

Basic altitude profile: - Ascent Rate: 2500ft/min - Ascent Speed: 250kts - Cruise Altitude: 35000ft - Cruise Speed: 420kts - Descent Rate: 1500ft/min - Descent Speed: 250kts Options: - Use NATs: yes - Use PACOTS: yes - Use low airways: yes - Use high airways: yes

Route

LICA DIVAR LICC

ID Type Via Altitude Latitude Longitude Leg Dist Tot Dist Heading (true) Name
O LICA APT - 0 ft / 0 m 38.90539˚ 16.24227˚ - 0 nm - Lamezia Terme
DIVAR FIX - 4,600 ft / 1,402 m 37.77167˚ 15.31222˚ 80 nm 80 nm 213° / 212° -
O LICC APT - 0 ft / 0 m 37.46678˚ 15.06640˚ 21 nm 102 nm 213° / 212° Catania Fontanarossa

Altitude Profile

Advertisement - Login to hide

LICA

Details ICAO LICA (SUF)
Name Lamezia Terme
Region Italy
Timezone Europe/Rome (UTC+2.0)
Stats Elevation 39 ft / 12 m (AMSL)
Location 38.905394° 16.242271°
Runways 1
Magnetic Variation 3.536° E

METAR

LICA 201550Z 08014KT CAVOK 25/10 Q1010

Decode

TAF

TAF LICA 201100Z 2012/2112 08016KT 9999 SCT030 BECMG 2017/2019 VRB05KT TEMPO 2109/2112 4000 SHRA

Decode

Departure Runways

ID Width Length Bearing (true) Bearing (mag) Surface Threshold Offset Overrun Length
10 148 ft / 45 m 7,858 ft / 2,395 m 98.54° 95.00° Asphalt 348 ft / 106 m 0 ft / 0 m
28 148 ft / 45 m 7,858 ft / 2,395 m 278.55° 275.01° Asphalt 351 ft / 107 m 0 ft / 0 m

LICC

Details ICAO LICC (CTA)
Name Catania Fontanarossa
Region Italy
Timezone Europe/Rome (UTC+2.0)
Stats Elevation 39 ft / 12 m (AMSL)
Location 37.466779° 15.066401°
Runways 1
Magnetic Variation 3.257° E

METAR

LICC 201620Z 07009KT 9999 FEW020 BKN080 21/15 Q1010 RERA

Decode

TAF

TAF AMD LICC 201328Z 2013/2112 08014KT 9999 SCT050 TEMPO 2013/2016 4000 TSRA BECMG 2018/2020 VRB05KT BECMG 2110/2112 07012KT

Decode

Destination Runways

ID Width Length Bearing (true) Bearing (mag) Surface Threshold Offset Overrun Length
08 148 ft / 45 m 7,985 ft / 2,434 m 83.94° 80.68° Asphalt 312 ft / 95 m 0 ft / 0 m
26 148 ft / 45 m 7,985 ft / 2,434 m 263.95° 260.69° Asphalt 279 ft / 85 m 0 ft / 0 m

Approach Navaids

Runway Type Ident Frequency Range Bearing (true) Bearing (mag) Slope Elevation
08 Localiser CTN 109.90 MHz 18 nm / 33 km 83.98° 80.72° - 25 ft / 8 m (AMSL)
08 Glidescope CTN 109.90 MHz 10 nm / 19 km 83.94° 80.69° 3.00° 25 ft / 8 m (AMSL)
08 DME CTN 109.90 MHz 18 nm / 33 km - - - 45 ft / 14 m (AMSL)